Location: Londesborough
(43.6991°N, 81.4804°W)
Time: 15:09:59
(UTC+00:00)

Daily predictions for brighter satellites

Satellite Brightness Start Highest point End
(mag) Time Altitude Azimuth Time Altitude Azimuth Time Altitude Azimuth
Meteor 2-21 4.5 12:05:10 10° NNW 12:11:20 71° W 12:17:24 10° S
Landsat 7 3.7 12:08:02 10° N 12:12:40 67° WNW 12:17:16 10° SSW
Cosmos 2292 Rocket 4.0 12:11:23 10° N 12:14:30 49° E 12:18:14 10° SSE
Cosmos 1733 Rocket 4.1 12:11:13 10° S 12:15:30 52° E 12:19:48 10° NNE
Cosmos 2369 Rocket 3.0 12:12:54 10° WSW 12:17:51 30° NW 12:22:51 10° N
Meteor 1-12 Rocket 4.5 12:14:23 10° SSW 12:19:58 50° WNW 12:25:31 10° N
IRS-1C 4.3 12:14:55 10° NNE 12:20:16 83° ESE 12:25:35 10° SSW
Cosmos 841 Rocket 4.1 12:15:40 10° NW 12:20:17 35° WSW 12:24:53 10° SSW
Cosmos 2123 Rocket 4.3 12:16:04 10° N 12:22:23 76° E 12:28:38 10° SSE
BREEZE-M DEB (TANK) 2.7 22:50:04 10° WSW 22:52:39 66° NNW 23:00:01 10° ENE
Meteor 1-28 Rocket 3.9 22:53:41 10° N 22:56:52 47° WNW 23:00:01 10° SSW
Cosmos 1869 Rocket 3.5 22:52:42 10° N 22:57:04 89° ENE 23:01:23 10° S
COSMO-SKYMED 1 3.9 22:54:52 10° NE 22:57:42 18° E 23:00:30 10° SE
AQUARIUS 4.2 22:53:55 10° SSE 22:58:12 55° ENE 23:02:32 10° N
MOS 1 Rocket 3.4 22:54:22 10° SSE 22:59:28 85° E 23:04:20 10° N
Cosmos 2228 Rocket 4.0 23:00:55 10° SSE 23:04:42 28° E 23:08:30 10° NNE
Resurs 01 Rocket 3.3 23:03:36 10° E 23:05:43 13° ENE 23:07:50 10° NNE
USA 305 3.9 23:04:27 10° W 23:07:41 30° NNW 23:11:18 10° NE
ISS -2.2 23:07:03 10° NW 23:09:47 23° N 23:12:14 11° ENE
Resurs 1-3 4.3 23:07:43 10° SE 23:11:30 31° ENE 23:15:19 10° N
USA 59 Rocket 0.6 23:10:59 10° NW 23:14:36 60° SW 23:19:29 10° SSE
SJ-12 3.7 23:11:41 10° SSE 23:15:29 88° ENE 23:19:19 10° NNW
Landsat 7 4.4 23:12:02 10° S 23:16:37 61° W 23:21:15 10° NNW
CZ-2D R/B 4.0 23:15:08 10° SE 23:18:29 30° ENE 23:21:52 10° N
YAOGAN 1 3.0 23:15:55 10° SE 23:19:49 37° ENE 23:23:44 10° N
Cosmos 1862 Rocket 3.6 23:16:54 10° S 23:21:13 58° E 23:25:32 10° NNE
CZ-3 Stage 3 4.4 23:01:58 10° WSW 23:21:44 39° S 23:27:56 10° ESE
PSLV R/B 4.4 23:18:27 10° SE 23:21:56 27° ENE 23:25:26 10° N
NOSS 3-1 (A) 4.3 23:19:20 10° NNW 23:26:08 48° NE 23:34:33 10° ESE
Nadezhda 3 Rocket 4.4 23:21:43 10° SSW 23:27:49 67° W 23:34:00 10° N
BlueWalker 3 2.0 23:27:02 10° WSW 23:30:35 64° NNW 23:33:13 17° NE
BREEZE-M DEB (TANK) 1.9 23:30:33 10° WNW 23:32:52 82° SSW 23:35:43 11° ESE
Cosmos 1908 Rocket 4.5 23:30:44 10° NNE 23:34:26 26° ENE 23:38:09 10° SE
NOSS 3-1 (C) 4.1 23:27:32 10° NW 23:34:49 90° ESE 23:43:50 10° SE
ATLAS 2AS CENTAUR R/B 4.0 23:30:32 10° SSE 23:34:58 18° ESE 23:36:55 16° E
Cosmos 1707 Rocket 3.4 23:31:17 10° S 23:35:33 81° E 23:39:51 10° N
CZ-2D R/B 4.1 23:33:06 10° S 23:36:04 41° W 23:39:03 10° NNW
SL-16 R/B 4.4 23:32:36 10° N 23:37:44 28° WNW 23:42:51 10° WSW
Cosmos 909 Rocket 4.4 23:31:39 10° SW 23:39:22 78° WNW 23:45:52 10° NNE
NOSS 8 (A) 4.3 23:37:42 10° NNW 23:40:32 49° NE 23:42:49 17° ESE
NOSS 2-1 (E) 4.5 23:37:43 10° NW 23:41:16 48° SW 23:45:58 10° SSE
Helios 1A Rocket 4.4 23:44:30 14° SE 23:44:30 14° SE 23:45:25 10° SE
Cosmos 1486 Rocket 3.9 23:38:15 10° NNW 23:43:34 70° ENE 23:48:47 10° SSE
Meteor 2-5 Rocket 4.0 23:38:46 10° SSE 23:44:03 45° E 23:49:30 10° NNE
COSMOS 2455 3.0 23:39:51 10° NNW 23:45:54 81° WSW 23:51:54 10° SSE
CARTOSAT-1 3.8 23:44:00 10° SE 23:47:58 42° ENE 23:51:57 10° N
NOAA 6 4.1 23:46:22 10° SSE 23:51:19 53° ENE 23:56:18 10° N
DELTA 2 R/B (1) 4.2 23:46:04 10° W 23:51:28 51° S 23:55:39 16° ESE
Cosmos 1980 Rocket 2.1 23:48:18 10° NNW 23:53:55 74° ENE 23:59:32 10° SSE
Cosmos 1354 Rocket 4.4 23:49:43 10° N 23:54:42 41° ENE 23:59:29 11° SE
SKYMED 2 4.0 23:50:38 10° N 23:54:57 65° WNW 23:59:14 10° SSW
Cosmos 2333 Rocket 3.7 23:52:29 10° N 23:55:59 17° NE 23:55:59 17° NE
